FW4110 Weather Reports


time (UTC)temp
C
wind
direction
speed
KPH
gust
KPH
rain 1hr
cm
rain 24hr
cm
rain mn
cm
humidity
%
barometer
mb
20260510173015 18 60 9.7 16.1 0.00 0.15 0.15 59 1022.2
20260510171515 19 348 6.4 16.1 0.00 0.15 0.15 57 1022.2
20260510170108 20 51 8.0 20.9 0.00 0.15 0.15 56 1022.1
20260510164504 19 50 3.2 17.7 0.00 0.15 0.15 56 1022.1
20260510163002 18 62 8.0 19.3 0.00 0.15 0.15 59 1022.2
20260510161558 18 73 6.4 14.5 0.00 0.15 0.15 59 1022.5
20260510160055 18 41 6.4 14.5 0.00 0.15 0.15 64 1022.4
20260510154559 18 45 9.7 16.1 0.00 0.15 0.15 61 1022.2
20260510153056 18 52 11.3 20.9 0.00 0.15 0.15 61 1022.1
20260510151548 18 52 3.2 19.3 0.00 0.15 0.15 64 1022.2
20260510150050 18 32 1.6 11.3 0.00 0.15 0.15 68 1021.7
20260510144548 17 16 4.8 17.7 0.00 0.15 0.15 71 1021.9
20260510143034 17 354 8.0 14.5 0.00 0.15 0.15 70 1021.4
20260510141531 16 14 6.4 14.5 0.00 0.15 0.15 48 1020.9
20260510140027 15 78 6.4 14.5 0.00 0.15 0.15 52 1020.8
20260510134525 15 343 6.4 16.1 0.00 0.15 0.15 55 1020.9
20260510133024 15 57 6.4 12.9 0.00 0.15 0.15 59 1020.8
20260510131517 14 21 4.8 12.9 0.00 0.15 0.15 63 1020.9
20260510130014 13 55 3.2 11.3 0.00 0.15 0.15 77 1020.6
20260510124510 13 360 0.0 6.4 0.00 0.15 0.15 81 1020.5
20260510123008 13 355 1.6 6.4 0.00 0.15 0.15 82 1020.3
20260510121504 13 40 0.0 4.8 0.00 0.15 0.15 81 1019.9
20260510120101 -17 0.0 0.0 0.00 0.15 0.15 1019.8
20260510114620 -17 0.0 0.0 0.00 0.15 0.15 1019.5
20260510113057 -17 0.0 0.0 0.00 0.15 0.15 1019.3
20260510111545 -17 358 4.8 11.3 0.00 0.15 0.15 1018.6
20260510110052 13 43 0.0 3.2 0.00 0.15 0.15 93 1018.4
20260510104537 13 251 0.0 0.0 0.00 0.15 0.15 93 1018.1
20260510103037 13 251 0.0 0.0 0.00 0.15 0.15 93 1017.7
20260510101531 13 251 0.0 0.0 0.00 0.15 0.15 93 1017.5
20260510100034 13 251 0.0 0.0 0.00 0.15 0.15 92 1017.4
20260510094535 13 251 0.0 0.0 0.00 0.15 0.15 92 1016.8
20260510093022 14 251 0.0 0.0 0.00 0.15 0.15 92 1016.8
20260510091519 14 251 0.0 0.0 0.00 0.15 0.15 92 1016.9
20260510090016 15 251 0.0 0.0 0.00 0.15 0.15 92 1016.9
20260510084510 15 249 0.0 0.0 0.00 0.15 0.15 92 1016.6
20260510083007 15 343 0.0 0.0 0.00 0.15 0.15 92 1016.3
20260510081507 15 253 0.0 0.0 0.00 0.15 0.15 92 1016.2
20260510080000 15 324 0.0 0.0 0.03 0.15 0.15 91 1015.8
20260510074558 15 185 0.0 0.0 0.03 0.15 0.15 91 1015.8
20260510073059 15 336 0.0 0.0 0.03 0.15 0.15 89 1015.8
20260510071551 15 355 0.0 0.0 0.03 0.15 0.15 86 1015.5
20260510064549 16 328 0.0 6.4 0.13 0.13 0.13 70 1015.9
20260510063044 16 299 0.0 0.0 0.13 0.13 0.13 56 1015.6
20260510061541 16 44 6.4 14.5 0.13 0.13 0.13 55 1014.6
20260510060044 16 147 0.0 0.0 0.03 0.03 0.03 62 1015.2
20260510054532 16 350 0.0 1.6 0.00 0.00 0.00 70 1015.3
20260510053028 16 229 1.6 4.8 0.00 0.00 0.00 77 1014.3
20260510051525 16 146 0.0 0.0 0.00 0.00 0.00 80 1014.5
20260510050027 17 121 0.0 1.6 0.00 0.00 0.00 83 1014.5
20260510044521 17 28 1.6 8.0 0.00 0.03 0.00 85 1015.1
20260510043030 17 66 4.8 17.7 0.00 0.03 0.00 85 1015.0
20260510041521 18 48 3.2 11.3 0.00 0.03 0.00 86 1014.7
20260510040012 18 64 6.4 22.5 0.00 0.03 0.00 85 1014.6
20260510034508 19 14 9.7 25.7 0.00 0.61 0.00 84 1014.5
20260510033005 20 355 9.7 25.7 0.00 0.61 0.00 82 1014.2
20260510031605 20 162 0.0 1.6 0.00 0.61 0.00 76 1013.0
20260510024557 21 158 1.6 3.2 0.00 1.22 0.00 74 1012.4
20260510023056 21 157 1.6 3.2 0.00 1.22 0.00 74 1012.0
20260510021642 20 168 0.0 3.2 0.00 1.22 0.00 74 1012.0
20260510020059 20 161 0.0 1.6 0.00 1.22 0.00 75 1011.7
20260510014559 20 165 0.0 3.2 0.00 1.22 0.00 75 1011.4
20260510013102 20 172 0.0 1.6 0.00 1.22 0.00 75 1011.3
20260510011554 21 170 0.0 1.6 0.00 1.22 0.00 73 1011.3
20260510010058 21 242 0.0 1.6 0.00 1.22 0.00 71 1011.1
20260510004551 22 271 0.0 1.6 0.00 1.27 0.00 72 1011.1
20260510003050 22 272 0.0 0.0 0.00 1.27 0.00 70 1010.7
20260510001550 23 272 0.0 0.0 0.00 1.27 0.00 67 1010.8
20260510000051 25 272 0.0 0.0 0.00 1.27 0.00 63 1010.7
20260509234549 26 272 0.0 1.6 0.00 1.27 0.00 58 1010.7
20260509233049 26 339 0.0 6.4 0.00 1.27 0.00 58 1010.7
20260509231550 26 175 1.6 11.3 0.00 1.27 0.00 56 1010.6
20260509230050 27 8 3.2 9.7 0.00 1.27 0.00 56 1010.6
20260509224547 27 318 1.6 11.3 0.00 1.27 0.00 56 1010.5
20260509223051 27 358 4.8 9.7 0.00 1.27 0.00 57 1010.5
20260509221545 27 275 4.8 12.9 0.00 1.27 0.00 58 1010.6
20260509220048 27 340 3.2 19.3 0.00 1.27 0.00 57 1010.6
20260509214545 27 336 3.2 12.9 0.00 1.27 0.00 55 1010.4
20260509213050 27 334 4.8 14.5 0.00 1.27 0.00 58 1010.4
20260509211539 27 311 6.4 17.7 0.00 1.27 0.00 59 1010.5
20260509210044 27 24 4.8 16.1 0.00 1.27 0.00 59 1010.7
20260509204539 27 360 6.4 14.5 0.00 1.27 0.00 58 1010.9
20260509203036 26 334 6.4 19.3 0.00 1.27 0.00 56 1011.0
20260509201538 26 344 4.8 19.3 0.00 1.27 0.00 60 1011.1
20260509200034 26 328 3.2 20.9 0.00 1.27 0.00 61 1011.2
20260509194544 26 55 6.4 22.5 0.00 1.27 0.00 59 1011.1
20260509193033 26 333 3.2 17.7 0.00 1.27 0.00 64 1011.2
20260509191528 25 357 9.7 19.3 0.00 1.27 0.00 62 1011.3
20260509190028 25 341 8.0 22.5 0.00 1.27 0.00 63 1011.2
20260509184528 25 343 8.0 25.7 0.00 1.27 0.00 62 1011.2
20260509183026 25 47 6.4 19.3 0.00 1.27 0.00 65 1011.4
20260509181523 25 325 8.0 20.9 0.00 1.27 0.00 64 1011.4
20260509180022 25 351 3.2 12.9 0.00 1.27 0.00 68 1011.5
20260509174518 24 38 6.4 19.3 0.00 1.27 0.00 69 1011.7